Regional Weather Roundup
Issued by NWS

Home | Current Version | Previous Version | Graphics & Text | Print | Product List | Glossary On
Versions: 1 2 3 4 5 6 7 8 9 10 11 12 13 14 15 16 17 18 19 20 21 22 23 24 25 26 27 28 29 30 31 32 33 34 35 36 37 38 39 40 41 42 43 44 45 46 47 48 49 50
000
ASUS43 KDMX 151006
RWRIA

WEATHER ROUNDUP FOR IOWA
NATIONAL WEATHER SERVICE DES MOINES IA
400 AM CST FRI DEC 15 2017

NOTE: "FAIR" INDICATES FEW OR NO CLOUDS BELOW 12,000 FEET WITH NO
SIGNIFICANT WEATHER AND/OR OBSTRUCTIONS TO VISIBILITY.

* - THESE STATIONS ARE NOT NWS STATIONS...THUS NOT UNDER NWS
QUALITY CONTROL.  THEY ALSO DO NOT REPORT WEATHER SUCH
AS PRECIPITATION OR FOG.

IAZ001>003-012>014-020>022-031>034-043>046-151100-
   NORTHWEST IOWA

CITY           SKY/WX    TMP DP  RH WIND       PRES   REMARKS
CARROLL *      CLOUDY    28  25  86 W10       30.03F WCI  19
CHEROKEE *     CLOUDY    29  26  86 SW7       30.01F WCI  22
DENISON *      CLOUDY    28  25  86 SW8       30.06F WCI  20
LE MARS *      CLOUDY    32  27  80 SW8       30.01F WCI  25
ORANGE CITY *  CLOUDY    30  28  93 W10       29.98F WCI  21
SHELDON *      CLOUDY    28  27  93 SW12      29.96F WCI  18
SIOUX CITY     CLOUDY    33  25  72 W7        30.04F WCI  27
SPENCER        CLOUDY    29  25  85 W14       29.97F WCI  18
STORM LAKE *   CLOUDY    28  25  86 W13       29.99F WCI  18
$$

IAZ055>058-069>071-079>083-090>094-151100-
   SOUTHWEST IOWA

CITY           SKY/WX    TMP DP  RH WIND       PRES   REMARKS
ATLANTIC *     CLOUDY    28  25  86 SW6       30.07F WCI  22
AUDUBON *      CLOUDY    28  25  86 W7        30.06F WCI  21
CLARINDA *     CLOUDY    34  25  69 NW6       30.13S WCI  29
COUNCIL BLFS * CLOUDY    32  27  80 W6        30.09F WCI  26
CRESTON *      CLOUDY    28  23  80 NW6       30.08F WCI  22
HARLAN  *      CLOUDY    30  27  86 SW8       30.10F WCI  23
LAMONI         CLOUDY    32  23  69 N8        30.08R WCI  25
RED OAK *      CLOUDY    32  25  74 W5        30.10F WCI  27
SHENANDOAH *   CLOUDY    32  25  74 W5        30.13S WCI  27
$$

IAZ047>049-059>061-072>074-084-151100-
   CENTRAL IOWA

CITY           SKY/WX    TMP DP  RH WIND       PRES   REMARKS
AMES           CLOUDY    26  23  88 SW7       30.03F WCI  18
ANKENY *       CLOUDY    27  23  86 SW6       30.06F WCI  20
BOONE *        CLOUDY    27  23  86 SW8       30.02S WCI  18
CHARITON *     MOCLDY    28  25  86 NW8       30.06F WCI  20
DES MOINES     CLOUDY    28  23  81 SW6       30.05F WCI  22
GRINNELL*      CLOUDY    26  22  88 W10       30.05S WCI  15
KNOXVILLE *    CLOUDY    28  25  86 NW6       30.05F WCI  22
MARSHALLTOWN   CLOUDY    24  20  84 W7        30.00F WCI  16
NEWTON *       CLOUDY    27  23  86 W7        30.04F WCI  19
PELLA *        CLOUDY    27  25  90 W7        30.07F WCI  20
PERRY *        CLOUDY    28  22  80 W7        30.04F WCI  20
$$

IAZ004>006-015-016-023>025-035-036-151100-
   NORTH CENTRAL IOWA

CITY           SKY/WX    TMP DP  RH WIND       PRES   REMARKS
ALGONA *       CLOUDY    28  27  93 SW10      29.96F WCI  19
CLARION *      CLOUDY    27  25  93 W10       29.99F WCI  17
ESTHERVILLE    CLOUDY    27  24  89 W9        29.95F WCI  18
FORT DODGE *   FLURRIES  27  23  85 SW7       30.01F WCI  19
MASON CITY     PTCLDY    22  18  85 W9        29.97F WCI  12
FOREST CITY *  MOCLDY    27  23  86 W5        29.95F WCI  21
WEBSTER CITY * CLOUDY    27  21  80 SW9       29.99F WCI  17
IOWA FALLS *   MOCLDY    25  21  87 SW8       30.01S WCI  16
$$

IAZ007>011-017>019-026>030-037>042-050>054-066-151100-
   NORTHEAST IOWA

CITY           SKY/WX    TMP DP  RH WIND       PRES   REMARKS
CEDAR RAPIDS   PTCLDY    22  17  81 W8        30.00S WCI  12
CHARLES CITY * CLOUDY    25  23  93 W8        29.95F WCI  16
CLINTON *      CLOUDY    27  20  75 W16       29.98F WCI  15
DECORAH *      CLOUDY    23  19  86 NW8       29.92F WCI  14
DUBUQUE        CLOUDY    23  16  74 NW13      29.94F WCI  11
MONTICELLO *   CLOUDY    23  16  74 W8        29.98S WCI  14
OELWEIN *      CLOUDY    25  21  86 W12       29.97F WCI  14
WATERLOO       CLOUDY    25  18  74 W9        29.99F WCI  15
$$

IAZ064-065-067-068-078-151100-
   EAST CENTRAL IOWA

CITY           SKY/WX    TMP DP  RH WIND       PRES   REMARKS
DAVENPORT      CLOUDY    26  19  74 W12       30.01S WCI  16
IOWA CITY      MOCLDY    29  21  72 NW14      30.04S WCI  18
MT. PLEASANT * CLOUDY    29  23  78 NW8       30.04S WCI  21
MUSCATINE *    CLOUDY    30  23  74 W9        30.03F WCI  22
QUAD CITIES    CLOUDY    29  21  72 W14       29.99F WCI  18
$$

IAZ062-063-075>077-085>089-095>099-151100-
   SOUTHEAST IOWA

CITY           SKY/WX    TMP DP  RH WIND       PRES   REMARKS
BURLINGTON     CLOUDY    29  21  72 W7        30.03S WCI  22
FAIRFIELD *    CLOUDY    28  25  86 NW10      30.04S WCI  19
FORT MADISON * CLOUDY    28  21  74 W9G16     30.04F WCI  20
KEOKUK *       CLOUDY    28  23  80 W6        30.04S WCI  22
OSKALOOSA *    MOCLDY    27  25  91 NW10      30.05F WCI  17
OTTUMWA        CLOUDY    29  25  85 NW12      30.05S WCI  19
WASHINGTON *   CLOUDY    28  27  93 NW13      30.04F WCI  18
$$

ABBREVIATIONS USED IN REMARKS
   TC - TEMPERATURES IN CELSIUS
  WCI - WIND CHILL INDEX
   HX - HEAT INDEX
  VSB - VISIBILITY
$$





USA.gov is the U.S. government's official web portal to all federal, state and local government web resources and services.